Location: *
(53.9450°S, 136.6720°W)
Time: 14:01:14
(UTC+00:00)

Daily predictions for brighter satellites

Satellite Brightness Start Highest point End
(mag) Time Altitude Azimuth Time Altitude Azimuth Time Altitude Azimuth
Cosmos 1515 Rocket 3.5 12:00:20 10° SSW 12:04:54 83° W 12:08:28 16° N
Cosmos 2208 Rocket 4.3 12:02:33 28° NW 12:05:13 56° WSW 12:10:24 10° SSE
ATLAS 5 CENTAUR R/B 2.6 12:03:31 10° WSW 12:08:15 31° WNW 12:09:49 26° NNW
CZ-2D R/B 4.1 12:07:40 13° W 12:08:23 13° W 12:11:01 10° SW
Cosmos 1340 2.7 12:05:54 10° SSW 12:09:46 64° W 12:11:55 24° N
Cosmos 2181 Rocket 4.2 12:07:11 24° NNW 12:11:12 63° WSW 12:17:40 10° S
GENESIS II 4.1 12:08:35 10° SW 12:12:33 67° NW 12:16:28 10° NNE
SL-16 R/B 2.3 12:09:08 10° SSW 12:14:55 82° ESE 12:20:39 10° NE
Cosmos 1937 Rocket 4.4 12:10:53 10° SW 12:15:14 27° W 12:16:38 24° NW
Cosmos 1697 Rocket 3.6 12:10:47 10° SW 12:15:36 29° WNW 12:17:37 23° NW
Cosmos 1500 Rocket 4.1 12:12:17 14° N 12:16:00 60° E 12:20:29 10° SSE
PAYLOAD B 4.2 12:11:12 10° NNE 12:16:50 86° WNW 12:22:35 10° SSW
SAR-Lupe-2 3.7 12:14:22 10° SSE 12:18:04 73° ENE 12:20:20 22° N
Cosmos 1125 Rocket 3.5 12:16:14 10° SSW 12:21:37 75° WNW 12:26:53 10° NNE
Cosmos 1869 3.5 12:18:19 10° S 12:22:26 77° ESE 12:26:30 10° NNE
UNK 3.8 12:19:08 10° SSE 12:23:53 83° ENE 12:27:40 16° NNW
Cosmos 1763 Rocket 3.6 12:21:56 22° NNW 12:25:30 78° WSW 12:30:54 10° SSE
Meteor 1-11 4.2 12:22:01 19° NNW 12:26:08 71° WSW 12:31:49 10° S
Abrixas rocket 3.1 12:25:50 28° NNW 12:26:12 29° N 12:29:07 10° NE
IDEFIX/ARIANE 42P 3.8 12:22:57 10° NE 12:27:54 45° ESE 12:32:55 10° S
Cosmos 1455 2.8 12:25:01 10° SSW 12:28:45 38° W 12:30:41 23° NNW
Cosmos 967 Rocket 4.5 12:22:47 10° SW 12:28:58 61° NW 12:35:08 10° NNE
CZ-4C R/B 3.3 12:23:01 13° W 12:29:27 51° SSW 12:35:41 10° SE
Okean O Rocket 1.6 12:26:20 10° N 12:30:51 74° WNW 12:35:23 10° SSW
Cosmos 372 Rocket 4.0 12:25:40 10° SSW 12:30:51 63° WNW 12:35:58 10° N
PSLV R/B 3.9 12:27:53 10° SSE 12:32:06 88° WSW 12:35:23 16° NNW
Cosmos 2082 Rocket 2.4 12:28:49 20° NW 12:32:50 67° SW 12:38:37 10° SSE
SL-19 R/B 3.9 12:33:22 10° SSE 12:37:06 83° WSW 12:39:17 20° NNW
Meteor 1-31 Rocket 2.8 12:33:26 10° NNE 12:37:27 89° WNW 12:41:32 10° SSW
Cosmos 1151 Rocket 3.5 12:35:52 10° SSW 12:40:02 43° W 12:43:33 14° NNW
USA 234 4.1 12:35:48 10° N 12:41:00 25° NW 12:46:16 10° WSW
Cosmos 1743 Rocket 3.7 12:38:27 16° NNW 12:42:00 67° WSW 12:46:32 10° S
Nadezhda 3 Rocket 4.2 12:37:17 10° N 12:43:29 78° E 12:49:51 10° SSE
Cosmos 841 Rocket 3.6 12:39:23 17° NW 12:43:30 75° WSW 12:48:53 10° SSE
SL-08 R/B 3.6 12:44:14 10° S 12:49:12 59° WSW 12:53:29 14° NW
SJ 16-02 1.7 12:45:07 10° SW 12:49:23 43° WNW 12:53:37 10° N
Cosmos 2219 Rocket 4.2 12:45:17 10° SSW 12:50:21 32° SE 12:55:24 10° ENE
CZ-2C R/B 3.6 12:47:43 10° NE 12:52:41 49° ESE 12:57:35 10° S
Shenzhou-11 Module 4.4 12:53:58 11° N 12:54:24 11° N 12:55:17 10° NNE
ADEOS II 3.5 12:52:50 15° WNW 12:55:19 20° W 12:59:13 10° SW
Cosmos 2151 3.4 12:56:12 14° NW 12:59:39 46° WSW 13:03:50 10° S
USA 81 4.3 12:58:15 10° N 13:03:35 77° E 13:08:59 10° S
Lacrosse 5 2.1 13:00:03 10° WSW 13:05:15 76° SSE 13:10:26 10° ENE
IRS-1C Rocket 4.2 13:00:07 10° N 13:05:19 56° WNW 13:10:36 10° SSW
APEX 2.6 13:04:27 12° NNW 13:07:17 73° NE 13:10:07 10° SE
SL-16 R/B 2.7 13:01:52 10° SSE 13:08:05 62° WSW 13:14:14 10° NW
ATLAS CENTAUR R/B 3.5 13:04:17 10° WSW 13:08:18 25° SSW 13:12:10 10° SE
Cosmos 2058 3.8 13:06:49 13° NW 13:10:09 34° WSW 13:14:03 10° S
Sich 1 3.8 13:08:53 10° N 13:13:15 57° E 13:17:38 10° SSE
Cosmos 2098 Rocket 4.2 13:13:14 10° WSW 13:14:43 13° W 13:15:44 12° WNW
Cosmos 292 Rocket 3.8 13:09:55 10° NW 13:14:44 70° WSW 13:19:36 10° SSE
Cosmos 2322 Rocket 2.5 13:09:57 10° SW 13:15:19 44° WNW 13:20:39 10° N
Cosmos 1805 Rocket 3.7 13:11:34 10° N 13:16:05 84° E 13:20:38 10° SSE
COSMOS 2487 3.8 13:13:30 12° WNW 13:16:19 28° SW 13:19:30 10° S
Cosmos 1707 Rocket 3.5 13:12:14 10° SSW 13:16:41 71° W 13:21:06 10° N
Cosmos 1461 3.6 13:15:21 10° WSW 13:18:39 26° WNW 13:21:57 10° N
Tiangong 2 3.6 13:20:25 10° N 13:21:13 11° N 13:21:59 10° NNE
Okean-O 2.7 13:17:27 10° NNE 13:21:58 87° WNW 13:26:32 10° SSW
Cosmos 1934 Rocket 4.0 13:16:15 10° SSW 13:22:24 69° W 13:28:35 10° N
GEOS 3 Rocket 4.2 13:17:48 10° SE 13:22:40 47° SSW 13:27:33 10° WNW
Cosmos 972 Rocket 4.4 13:20:01 10° NNW 13:25:54 79° ENE 13:31:15 10° SSE
Cosmos 2360 Rocket 2.2 13:20:35 10° SW 13:26:19 74° WNW 13:32:00 10° NNE
Cosmos 1980 Rocket 3.8 13:24:18 10° WSW 13:27:22 15° W 13:30:25 10° NW
deb Kosmos-1763 4.2 13:24:07 10° NNW 13:27:55 85° ENE 13:31:46 10° SSE
Cosmos 1626 4.4 13:29:15 10° W 13:30:39 12° WSW 13:32:03 10° SW
Cosmos 540 Rocket 3.8 13:27:50 10° NW 13:32:58 55° WSW 13:38:09 10° SSE
Lacrosse 4 Rocket 1.5 13:29:12 10° SW 13:33:41 81° NW 13:38:01 10° NNE
CZ-4B R/B 4.1 13:28:54 10° NNW 13:33:55 31° W 13:38:59 10° SSW
Cosmos 1441 Rocket 3.3 13:30:40 10° SSW 13:34:35 89° WSW 13:38:31 10° NNE
Cosmos 1633 Rocket 3.4 13:32:26 10° N 13:36:52 74° E 13:41:19 10° SSE
MSX 3.9 13:31:19 10° NNE 13:37:09 84° WNW 13:43:04 10° SSW
Cosmos 2242 Rocket 3.8 13:33:25 10° S 13:38:00 85° E 13:42:32 10° NNE
Cosmos 2333 Rocket 3.4 13:33:11 10° SSW 13:38:51 51° SE 13:44:29 10° NE
Cosmos 1833 Rocket 3.9 13:34:23 10° W 13:39:22 30° SW 13:44:23 10° SSE
Cosmos 1821 Rocket 4.4 13:34:13 10° SSW 13:39:59 41° W 13:45:40 10° NNW
